Tracking 28125 objects as of 2-Oct-2023
HD Live streaming from Space Station
objects crossing your sky now

STARLINK-4379

Track STARLINK-4379 now!
10-day predictions
STARLINK-4379 is classified as:


NORAD ID: 53217
Int'l Code: 2022-084AE
Perigee: 569.8 km
Apogee: 570.5 km
Inclination: 97.7 °
Period: 95.9 minutes
Semi major axis: 6941 km
RCS: Unknown
Launch date: July 22, 2022
Source: United States (US)
Launch site: AIR FORCE WESTERN TEST RANGE (AFWTR)
Your satellite tracking list
Your tracking list is empty




NASA's NSSDC Master Catalog

Two Line Element Set (TLE):
1 53217U 22084AE  23275.12000919  .00000125  00000-0  14322-4 0  9999
2 53217  97.6581 334.6820 0000493  85.6932 274.4348 15.01268199 66232
Source of the keplerian elements: AFSPC